When you browse on this site, cookies collect data to enhance your experience and personalize the content and advertising you see.
Visit our Privacy Policy to learn more. By continuing to use the site, you agree to this use of cookies and data.
  • In Czech Republic
  • List of Countries
  • For 7 days
  • Water Temperature
  • Satellite Maps
  • Weather Map
  • Weather Widgets
  • user-avatar
    Login

    Hourly Weather Quelimane

    Today, 22 January, Tuesday

    Time Temperature Precipitation Wind Pressure Humidity
    00:00 +22°C° 0.2 mm 6 mps 753 mmHg 92%
    01:00 +22°C° 0.2 mm 5 mps 752 mmHg 93%
    02:00 +22°C° 0.2 mm 5 mps 752 mmHg 93%
    03:00 +22°C° 0.2 mm 4 mps 752 mmHg 94%
    04:00 +22°C° 0.2 mm 3 mps 753 mmHg 95%
    05:00 +23°C° 0.2 mm 2 mps 753 mmHg 95%
    06:00 +24°C° 0.1 mm 2 mps 753 mmHg 95%
    07:00 +24°C° 0.1 mm 3 mps 753 mmHg 95%
    08:00 +24°C° 0.1 mm 3 mps 753 mmHg 95%
    09:00 +25°C° 0 mm 3 mps 753 mmHg 89%
    10:00 +27°C° 0 mm 3 mps 753 mmHg 84%
    11:00 +28°C° 0 mm 3 mps 753 mmHg 79%
    12:00 +28°C° 0 mm 2 mps 753 mmHg 79%
    13:00 +28°C° 0 mm 2 mps 753 mmHg 80%
    14:00 +28°C° 0 mm 2 mps 753 mmHg 80%
    15:00 +28°C° 0 mm 1 mps 752 mmHg 80%
    16:00 +28°C° 0 mm 1 mps 752 mmHg 80%
    17:00 +29°C° 0 mm 1 mps 752 mmHg 80%
    18:00 +28°C° 0 mm 1 mps 752 mmHg 85%
    19:00 +27°C° 0 mm 1 mps 753 mmHg 89%
    20:00 +25°C° 0 mm 1 mps 753 mmHg 94%
    21:00 +25°C° 0 mm 1 mps 753 mmHg 95%
    22:00 +25°C° 0 mm 1 mps 753 mmHg 96%
    23:00 +25°C° 0 mm 2 mps 753 mmHg 98%

    Tomorrow, 23 January, Wednesday

    Time Temperature Precipitation Wind Pressure Humidity
    00:00 +25°C° 0 mm 2 mps 753 mmHg 98%
    01:00 +25°C° 0 mm 2 mps 753 mmHg 98%
    02:00 +25°C° 0 mm 2 mps 752 mmHg 98%
    03:00 +25°C° 0 mm 3 mps 752 mmHg 97%
    04:00 +25°C° 0 mm 3 mps 752 mmHg 95%
    05:00 +25°C° 0 mm 3 mps 752 mmHg 93%
    06:00 +26°C° 0.1 mm 4 mps 753 mmHg 92%
    07:00 +26°C° 0.1 mm 4 mps 753 mmHg 91%
    08:00 +27°C° 0.1 mm 4 mps 754 mmHg 89%
    09:00 +28°C° 0 mm 5 mps 754 mmHg 85%
    10:00 +29°C° 0 mm 5 mps 753 mmHg 80%
    11:00 +30°C° 0 mm 5 mps 753 mmHg 76%
    12:00 +32°C° 0.6 mm 5 mps 753 mmHg 75%
    13:00 +32°C° 0.6 mm 5 mps 752 mmHg 74%
    14:00 +33°C° 0.6 mm 5 mps 752 mmHg 74%
    15:00 +32°C° 3 mm 4 mps 752 mmHg 80%
    16:00 +29°C° 3 mm 4 mps 752 mmHg 86%
    17:00 +28°C° 3 mm 4 mps 752 mmHg 93%
    18:00 +27°C° 1.3 mm 4 mps 753 mmHg 94%
    19:00 +27°C° 1.3 mm 3 mps 753 mmHg 95%
    20:00 +26°C° 1.3 mm 3 mps 754 mmHg 97%
    21:00 +26°C° 0.5 mm 3 mps 754 mmHg 97%
    22:00 +25°C° 0.5 mm 3 mps 755 mmHg 97%
    23:00 +25°C° 0.5 mm 3 mps 755 mmHg 97%

    Day after tomorrow, 24 January, Thursday

    Time Temperature Precipitation Wind Pressure Humidity
    00:00 +25°C° 1.3 mm 3 mps 755 mmHg 97%
    01:00 +25°C° 1.3 mm 3 mps 754 mmHg 97%
    02:00 +25°C° 1.3 mm 3 mps 754 mmHg 98%
    03:00 +25°C° 1.4 mm 3 mps 754 mmHg 98%
    04:00 +25°C° 1.4 mm 3 mps 754 mmHg 98%
    05:00 +25°C° 1.4 mm 3 mps 754 mmHg 98%
    06:00 +25°C° 0.8 mm 3 mps 755 mmHg 98%
    07:00 +25°C° 0.8 mm 3 mps 755 mmHg 97%
    08:00 +25°C° 0.8 mm 3 mps 756 mmHg 97%
    09:00 +25°C° 0.6 mm 3 mps 756 mmHg 97%
    10:00 +25°C° 0.6 mm 3 mps 756 mmHg 97%
    11:00 +25°C° 0.6 mm 3 mps 756 mmHg 97%
    12:00 +27°C° 0 mm 3 mps 755 mmHg 92%
    13:00 +28°C° 0 mm 3 mps 755 mmHg 86%
    14:00 +30°C° 0 mm 3 mps 754 mmHg 80%
    15:00 +29°C° 0.3 mm 3 mps 754 mmHg 84%
    16:00 +28°C° 0.3 mm 3 mps 754 mmHg 88%
    17:00 +28°C° 0.3 mm 2 mps 754 mmHg 92%
    18:00 +27°C° 0 mm 2 mps 755 mmHg 94%
    19:00 +26°C° 0 mm 2 mps 755 mmHg 95%
    20:00 +26°C° 0 mm 1 mps 756 mmHg 97%
    21:00 +25°C° 0 mm 2 mps 756 mmHg 97%
    22:00 +25°C° 0 mm 2 mps 756 mmHg 97%
    23:00 +25°C° 0 mm 2 mps 756 mmHg 98%

    25 January, Friday

    Time Temperature Precipitation Wind Pressure Humidity
    00:00 +25°C° 0.1 mm 2 mps 756 mmHg 97%
    01:00 +25°C° 0.1 mm 2 mps 756 mmHg 97%
    02:00 +25°C° 0.1 mm 2 mps 755 mmHg 97%
    03:00 +25°C° 0 mm 2 mps 756 mmHg 97%
    04:00 +25°C° 0 mm 2 mps 756 mmHg 96%
    05:00 +25°C° 0 mm 2 mps 756 mmHg 96%
    06:00 +25°C° 0 mm 3 mps 757 mmHg 93%
    07:00 +26°C° 0 mm 3 mps 757 mmHg 91%
    08:00 +27°C° 0 mm 3 mps 758 mmHg 88%
    09:00 +28°C° 0 mm 3 mps 758 mmHg 83%
    10:00 +30°C° 0 mm 4 mps 758 mmHg 77%
    11:00 +32°C° 0 mm 4 mps 758 mmHg 71%
    12:00 +32°C° 0.5 mm 4 mps 757 mmHg 75%
    13:00 +30°C° 0.5 mm 4 mps 757 mmHg 79%
    14:00 +30°C° 0.5 mm 4 mps 756 mmHg 82%
    15:00 +29°C° 0.2 mm 3 mps 756 mmHg 84%
    16:00 +29°C° 0.2 mm 3 mps 756 mmHg 86%
    17:00 +28°C° 0.2 mm 3 mps 756 mmHg 88%
    18:00 +28°C° 0 mm 3 mps 757 mmHg 91%
    19:00 +27°C° 0 mm 2 mps 757 mmHg 93%
    20:00 +26°C° 0 mm 2 mps 758 mmHg 95%
    21:00 +26°C° 0.1 mm 2 mps 758 mmHg 96%
    22:00 +26°C° 0.1 mm 1 mps 758 mmHg 96%
    23:00 +26°C° 0.1 mm 1 mps 758 mmHg 97%

    26 January, Saturday

    Time Temperature Precipitation Wind Pressure Humidity
    00:00 +26°C° 0.2 mm 1 mps 758 mmHg 97%
    01:00 +26°C° 0.2 mm 1 mps 757 mmHg 98%
    02:00 +26°C° 0.2 mm 1 mps 757 mmHg 98%
    03:00 +25°C° 0.7 mm 2 mps 757 mmHg 98%
    04:00 +25°C° 0.7 mm 2 mps 758 mmHg 98%
    05:00 +25°C° 0.7 mm 2 mps 758 mmHg 98%
    06:00 +26°C° 1.1 mm 2 mps 758 mmHg 96%
    07:00 +27°C° 1.1 mm 2 mps 759 mmHg 95%
    08:00 +27°C° 1.1 mm 2 mps 759 mmHg 93%
    09:00 +28°C° 0.6 mm 2 mps 759 mmHg 89%
    10:00 +29°C° 0.6 mm 2 mps 759 mmHg 86%
    11:00 +30°C° 0.6 mm 2 mps 758 mmHg 82%
    12:00 +30°C° 0.4 mm 3 mps 758 mmHg 77%
    13:00 +31°C° 0.4 mm 3 mps 758 mmHg 72%
    14:00 +33°C° 0.4 mm 3 mps 757 mmHg 68%
    15:00 +31°C° 0 mm 3 mps 757 mmHg 71%
    16:00 +30°C° 0 mm 3 mps 757 mmHg 75%
    17:00 +30°C° 0 mm 2 mps 757 mmHg 78%
    18:00 +29°C° 0.2 mm 2 mps 757 mmHg 83%
    19:00 +28°C° 0.2 mm 2 mps 758 mmHg 88%
    20:00 +27°C° 0.2 mm 2 mps 759 mmHg 92%
    21:00 +26°C° 0.2 mm 2 mps 759 mmHg 93%
    22:00 +26°C° 0.2 mm 2 mps 759 mmHg 94%
    23:00 +26°C° 0.2 mm 1 mps 759 mmHg 95%

    27 January, Sunday

    Time Temperature Precipitation Wind Pressure Humidity
    00:00 +26°C° 0.9 mm 2 mps 758 mmHg 95%
    01:00 +26°C° 0.9 mm 2 mps 758 mmHg 96%
    02:00 +25°C° 0.9 mm 2 mps 757 mmHg 96%
    03:00 +25°C° 0.4 mm 2 mps 758 mmHg 96%
    04:00 +25°C° 0.4 mm 2 mps 758 mmHg 96%
    05:00 +25°C° 0.4 mm 2 mps 758 mmHg 96%
    06:00 +27°C° 0.1 mm 2 mps 758 mmHg 91%
    07:00 +28°C° 0.1 mm 2 mps 759 mmHg 86%
    08:00 +30°C° 0.1 mm 2 mps 759 mmHg 81%
    09:00 +31°C° 0.1 mm 3 mps 759 mmHg 74%
    10:00 +33°C° 0.1 mm 3 mps 759 mmHg 67%
    11:00 +34°C° 0.1 mm 3 mps 758 mmHg 59%
    12:00 +34°C° 0.2 mm 4 mps 758 mmHg 60%
    13:00 +34°C° 0.2 mm 4 mps 757 mmHg 61%
    14:00 +34°C° 0.2 mm 5 mps 757 mmHg 61%
    15:00 +33°C° 0.3 mm 5 mps 757 mmHg 68%
    16:00 +32°C° 0.3 mm 5 mps 757 mmHg 74%
    17:00 +29°C° 0.3 mm 5 mps 757 mmHg 80%
    18:00 +28°C° 0.1 mm 4 mps 758 mmHg 82%
    19:00 +28°C° 0.1 mm 3 mps 758 mmHg 85%
    20:00 +27°C° 0.1 mm 3 mps 759 mmHg 87%
    21:00 +26°C° 0 mm 3 mps 759 mmHg 87%
    22:00 +26°C° 0 mm 2 mps 759 mmHg 87%
    23:00 +26°C° 0 mm 2 mps 760 mmHg 88%
    Show more